Regional Weather Roundup
Issued by NWS New Orleans/Baton Rouge, LA

Home | Current Version | Previous Version | Text Only | Print | Product List | Glossary On
Versions: 1 2 3 4 5 6 7 8 9 10 11 12 13 14 15 16 17 18 19 20 21 22 23 24 25 26 27 28 29 30 31 32 33 34 35 36 37 38 39 40 41 42 43 44 45 46 47 48 49 50
000
ASUS44 KLIX 230713
RWRLIX
NEW ORLEANS REGIONAL WEATHER ROUNDUP
NATIONAL WEATHER SERVICE NEW ORLEANS LA
200 AM CDT WED AUG 23 2017

NOTE: "FAIR" INDICATES FEW OR NO CLOUDS BELOW 12,000 FEET WITH NO
      SIGNIFICANT WEATHER AND/OR OBSTRUCTIONS TO VISIBILITY.
      SKY/WX - SKY CONDITION AND SIGNIFICANT WEATHER.
      TMP - AIR TEMPERATURE.     DP    - DEWPOINT TEMPERATURE.
      RH  - RELATIVE HUMIDITY.   PRES  - PRESSURE.
      HI  - HEAT INDEX.          WCI   - WIND CHILL INDEX.

*  THESE STATIONS ARE NOT NWS OR FAA STATIONS AND ARE NOT UNDER
   NWS QUALITY CONTROL.

LAZ038-040-048-061>063-065>067-069-230800-
SOUTHEAST LOUISIANA

CITY           SKY/WX    TMP DP  RH WIND       PRES   REMARKS
N.O. INTL ARPT MOCLDY    79  78  97 NW5       30.00F
N.O. LAKEFRONT MOCLDY    84  78  82 NW7       30.00F HX  95
N.O. DOWNTOWN*   N/A     83  76  79 CALM      30.01S
RESERVE*         N/A     77  74  90 CALM      30.01F
SLIDELL        CLEAR     75  73  93 CALM      30.00S
BATON ROUGE    CLEAR     73  71  93 NE3       30.02S
BOOTHVILLE     CLOUDY    84  79  85 CALM      29.99S HX  96
BELLE CHASSE   NOT AVBL
BOGALUSA*      NOT AVBL
GALLIANO*      CLOUDY    78  74  88 N7        29.99F
NEW ROADS*     PTSUNNY   73  73  99 CALM      30.03S
GONZALES*        N/A     73  72  95 CALM      30.01S
HAMMOND*       CLEAR     75  72  88 N5        30.02S
HOUMA*         NOT AVBL
PORT FOURCHON* MOSUNNY   86  77  74 CALM      29.98S HX  97

$$

MSZ070-080>082-230800-
SOUTHERN MISSISSIPPI

CITY           SKY/WX    TMP DP  RH WIND       PRES   REMARKS
MCCOMB         CLEAR     75  72  90 CALM      30.04F
GULFPORT       PTCLDY    77  75  93 CALM      30.00S
BILOXI         CLEAR     77  75  94 N3        30.00S
PASCAGOULA     CLEAR     73  71  93 CALM      30.01S FOG

$$

COASTAL OBSERVATIONS
LAKE AND NEARSHORE STATIONS

STATION/POSITION TIME  TEMP    WIND        PRES    WAVE
                       AIR SEA DIR/SP/G            HT/PER
                 (UTC) (F)     (DEG/KT/KT) (MB)    (FT/S)
PASCAGOULA       0648   77      10/  4/  5 1015.6
WAVELAND YACHT   0648      86  320/  3/  5 1016.3
GRAND ISLE       0648   85 90   CALM  /  1 1015.7
SOUTHWEST PASS   0648   85     170/  5/  7   N/A
NEW CANAL        0648   83 88  280/  2/  4 1015.9
SHELL BEACH      0642   83 89  260/  1/  2 1015.8

OFFSHORE STATIONS

STATION/POSITION TIME  TEMP    WIND        PRES    WAVE
                       AIR SEA DIR/SP/G            HT/PER
                 (UTC) (F)     (DEG/KT/KT) (MB)    (FT/S)
64 S DAUPHIN ISL 0650   85 87  140/  2/  4 1015.5    2/ 7

$$




USA.gov is the U.S. government's official web portal to all federal, state and local government web resources and services.